Regional Weather Roundup
Issued by NWS

Home | Current Version | Previous Version | Graphics & Text | Print | Product List | Glossary On
Versions: 1 2 3 4 5 6 7 8 9 10 11 12 13 14 15 16 17 18 19 20 21 22 23 24 25 26 27 28 29 30 31 32 33 34 35 36 37 38 39 40 41 42 43 44 45 46 47 48 49 50
000
ASUS43 KDMX 231206
RWRIA

WEATHER ROUNDUP FOR IOWA
NATIONAL WEATHER SERVICE DES MOINES IA
700 AM CDT SAT SEP 23 2017

NOTE: "FAIR" INDICATES FEW OR NO CLOUDS BELOW 12,000 FEET WITH NO
SIGNIFICANT WEATHER AND/OR OBSTRUCTIONS TO VISIBILITY.

* - THESE STATIONS ARE NOT NWS STATIONS...THUS NOT UNDER NWS
QUALITY CONTROL.  THEY ALSO DO NOT REPORT WEATHER SUCH
AS PRECIPITATION OR FOG.

IAZ001>003-012>014-020>022-031>034-043>046-231300-
   NORTHWEST IOWA

CITY           SKY/WX    TMP DP  RH WIND       PRES   REMARKS
CARROLL *      PTCLDY    66  66 100 S7        29.97R
CHEROKEE *     PTCLDY    69  68  98 S5        29.94R
DENISON *      CLEAR     70  68  94 S7        29.98R
LE MARS *      CLEAR     64  61  88 CALM      29.94R
ORANGE CITY *  CLEAR     66  64  94 W6        29.94R
SHELDON *      PTCLDY    70  68  94 SW5       29.92R
SIOUX CITY     PTCLDY    66  66 100 NW9       29.94R
6HR MIN TEMP:  66; 6HR MAX TEMP:  76;

SPENCER        PTCLDY    69  67  93 S9        29.94R
6HR MIN TEMP:  69; 6HR MAX TEMP:  76;

STORM LAKE *   PTCLDY    68  66  94 S8        29.96R
$$

IAZ055>058-069>071-079>083-090>094-231300-
   SOUTHWEST IOWA

CITY           SKY/WX    TMP DP  RH WIND       PRES   REMARKS
ATLANTIC *     CLEAR     70  66  88 S5        29.97S
AUDUBON *      CLEAR     70  64  83 S5        29.99R
CLARINDA *     CLEAR     66  66 100 CALM      30.00R
COUNCIL BLFS * CLEAR     68  68 100 SE8       29.96R
CRESTON *      CLEAR     70  66  88 S7        30.01R
HARLAN  *      CLEAR     70  68  94 S7        30.00R
LAMONI         CLEAR     69  67  93 S5        30.01R
6HR MIN TEMP:  69; 6HR MAX TEMP:  73;

RED OAK *      CLEAR     68  66  94 SE3       29.97R
SHENANDOAH *   CLEAR     68  66  94 CALM      29.97R
$$

IAZ047>049-059>061-072>074-084-231300-
   CENTRAL IOWA

CITY           SKY/WX    TMP DP  RH WIND       PRES   REMARKS
AMES           CLEAR     65  65 100 E3        30.00R
6HR MIN TEMP:  65; 6HR MAX TEMP:  71;

ANKENY *       CLEAR     70  66  88 CALM      30.00R
BOONE *        CLEAR     70  66  88 VRB5      29.99R
CHARITON *     CLEAR     68  64  88 SE7       30.01R
DES MOINES     PTCLDY    71  67  87 S7        29.99R
6HR MIN TEMP:  71; 6HR MAX TEMP:  75;

GRINNELL*      CLEAR     67  64  88 S3        30.03R
KNOXVILLE *    CLEAR     70  64  83 S6        29.99S
MARSHALLTOWN   CLEAR     68  66  93 SE6       30.00R
6HR MIN TEMP:  67; 6HR MAX TEMP:  73;

NEWTON *       PTCLDY    66  64  94 S6        30.01R
PELLA *        PTCLDY    69  64  85 S3        30.02R
PERRY *          N/A     68  67  97 S6        29.99R
$$

IAZ004>006-015-016-023>025-035-036-231300-
   NORTH CENTRAL IOWA

CITY           SKY/WX    TMP DP  RH WIND       PRES   REMARKS
ALGONA *       PTCLDY    70  70 100 S10       29.97R
CLARION *      PTCLDY    68  68 100 S7        29.99R
ESTHERVILLE    PTCLDY    67  67 100 S12       29.94R
6HR MIN TEMP:  67; 6HR MAX TEMP:  73;

FORT DODGE *   CLEAR     71  67  87 S8        29.98R
MASON CITY     CLEAR     66  64  93 S6        30.01R
6HR MIN TEMP:  66; 6HR MAX TEMP:  72;

FOREST CITY *    N/A     68  66  94 S8        29.99R
WEBSTER CITY * CLEAR     68  66  94 S6        29.97R
IOWA FALLS *     N/A     67  65  94 SE5       30.02R
$$

IAZ007>011-017>019-026>030-037>042-050>054-066-231300-
   NORTHEAST IOWA

CITY           SKY/WX    TMP DP  RH WIND       PRES   REMARKS
CEDAR RAPIDS   CLEAR     67  63  87 SE5       30.02R
CHARLES CITY * CLEAR     68  68 100 S5        30.02R
CLINTON *      CLEAR    N/A N/A N/A E5        30.05R
DECORAH *      CLEAR     70  64  83 S6        30.01S
DUBUQUE        CLEAR     66  62  87 S6        30.05R
6HR MIN TEMP:  65; 6HR MAX TEMP:  72;

MONTICELLO *   CLEAR     61  61 100 CALM      30.03R
OELWEIN *      CLEAR     64  64 100 S6        30.03R
WATERLOO       CLEAR     66  63  90 SE3       30.00R
6HR MIN TEMP:  66; 6HR MAX TEMP:  74;

$$

IAZ064-065-067-068-078-231300-
   EAST CENTRAL IOWA

CITY           SKY/WX    TMP DP  RH WIND       PRES   REMARKS
DAVENPORT      CLEAR     64  61  90 SE5       30.06R
6HR MIN TEMP:  63; 6HR MAX TEMP:  72;

IOWA CITY      CLEAR     66  62  87 CALM      30.04R
6HR MIN TEMP:  65; 6HR MAX TEMP:  72;

MT. PLEASANT * CLEAR     66  62  86 SE7       30.03R
MUSCATINE *    CLEAR     64  63  94 CALM      30.03R
QUAD CITIES    CLEAR     66  62  87 CALM      30.03R
6HR MIN TEMP:  65; 6HR MAX TEMP:  75;

$$

IAZ062-063-075>077-085>089-095>099-231300-
   SOUTHEAST IOWA

CITY           SKY/WX    TMP DP  RH WIND       PRES   REMARKS
BURLINGTON     CLEAR     67  64  90 S3        30.03R
6HR MIN TEMP:  67; 6HR MAX TEMP:  74;

FAIRFIELD *    CLEAR     70  63  78 S5        30.02R
FORT MADISON * CLEAR     70  63  78 S6        30.04R
KEOKUK *       CLEAR     68  64  88 CALM      30.03R
OSKALOOSA *      N/A     65  63  93 CALM      30.02R
CENTERVILLE *    N/A     66  64  94 CALM      30.04R
OTTUMWA        CLEAR     69  64  84 S6        30.01R
6HR MIN TEMP:  67; 6HR MAX TEMP:  73;

WASHINGTON *   CLEAR     63  63 100 SE5       30.04R
$$

ABBREVIATIONS USED IN REMARKS
   TC - TEMPERATURES IN CELSIUS
  WCI - WIND CHILL INDEX
   HX - HEAT INDEX
  VSB - VISIBILITY
$$




USA.gov is the U.S. government's official web portal to all federal, state and local government web resources and services.